SM7SJR-13 Weather Reports


Display with metric or nautical units.
time (UTC)temp
F
wind
direction
speed
MPH
gust
MPH
rain 1hr
in
rain 24hr
in
rain mn
in
humidity
%
barometer
mb
20260902114503 72 236 11.0 20.0 0.00 0.00 0.00 66 1010.6
20260902113004 71 239 12.0 20.0 0.00 0.00 0.00 68 1010.6
20260902111504 70 241 10.0 21.0 0.00 0.00 0.00 69 1010.8
20260902110005 69 228 10.0 14.0 0.00 0.00 0.00 73 1010.9
20260902104504 69 248 8.0 14.0 0.00 0.00 0.00 72 1010.9
20260902103003 66 249 7.0 13.0 0.00 0.00 0.00 79 1011.2
20260902101503 66 244 9.0 17.0 0.00 0.00 0.00 78 1011.1
20260902100004 66 250 6.0 16.0 0.00 0.00 0.00 79 1011.1
20260902093004 66 241 5.0 16.0 0.00 0.00 0.00 79 1011.3
20260902091504 65 241 10.0 18.0 0.00 0.00 0.00 79 1011.3
20260902090005 66 240 13.0 17.0 0.00 0.00 0.00 78 1011.1
20260902084504 66 246 7.0 16.0 0.00 0.00 0.00 77 1011.1
20260902083005 65 240 7.0 13.0 0.00 0.00 0.00 80 1011.2
20260902081504 65 241 5.0 17.0 0.00 0.00 0.00 79 1011.2
20260902074504 64 241 9.0 15.0 0.00 0.00 0.00 80 1011.2
20260902073003 64 226 4.0 12.0 0.00 0.00 0.00 81 1010.9
20260902070006 62 256 5.0 12.0 0.00 0.00 0.00 83 1010.9
20260902064504 62 251 3.0 12.0 0.00 0.00 0.00 85 1010.8
20260902063004 60 245 6.0 12.0 0.00 0.00 0.00 88 1010.8
20260902060004 57 238 3.0 7.0 0.00 0.00 0.00 94 1010.8
20260902054503 57 240 3.0 8.0 0.00 0.00 0.00 95 1010.8
20260902053005 56 242 4.0 9.0 0.00 0.00 0.00 96 1010.4
20260902051503 55 254 5.0 9.0 0.00 0.00 0.00 97 1010.4
20260902050006 54 267 5.0 9.0 0.00 0.00 0.00 96 1010.4
20260902044504 54 249 4.0 7.0 0.00 0.00 0.00 96 1010.4
20260902043004 54 248 5.0 8.0 0.00 0.00 0.00 96 1010.3
20260902041504 54 244 6.0 7.0 0.00 0.00 0.00 97 1010.3
20260902040004 54 238 2.0 3.0 0.00 0.00 0.00 96 1010.2
20260902034504 54 234 3.0 7.0 0.00 0.00 0.00 96 1010.1
20260902033004 54 238 5.0 7.0 0.00 0.00 0.00 96 1010.2
20260902031503 54 231 4.0 8.0 0.00 0.00 0.00 96 1010.0
20260902023004 54 241 5.0 8.0 0.00 0.00 0.00 95 1010.0
20260902021503 54 245 5.0 7.0 0.00 0.00 0.00 95 1010.0
20260902014503 55 246 5.0 8.0 0.00 0.00 0.00 95 1010.1
20260902010004 56 261 4.0 8.0 0.00 0.00 0.00 95 1009.9
20260902004504 56 244 6.0 8.0 0.00 0.00 0.00 94 1009.9
20260902003004 56 248 4.0 7.0 0.00 0.00 0.00 94 1009.9
20260901234504 57 252 3.0 9.0 0.00 0.00 0.00 93 1009.9
20260901233003 57 257 5.0 8.0 0.00 0.00 0.00 93 1009.8
20260901231503 58 254 5.0 8.0 0.00 0.00 0.00 93 1009.8
20260901230004 58 249 5.0 9.0 0.00 0.00 0.00 93 1009.7
20260901223004 59 247 5.0 7.0 0.00 0.00 0.00 91 1009.8
20260901220004 60 257 5.0 10.0 0.00 0.00 0.00 89 1009.7
20260901213004 61 258 5.0 8.0 0.00 0.00 0.00 88 1009.6
20260901211504 61 260 2.0 12.0 0.00 0.00 0.00 88 1009.5
20260901210004 61 244 6.0 12.0 0.00 0.00 0.00 88 1009.3
20260901204504 62 262 5.0 10.0 0.00 0.00 0.00 88 1009.3
20260901203003 62 253 5.0 12.0 0.00 0.00 0.00 87 1009.3
20260901200003 63 255 6.0 10.0 0.00 0.00 0.00 88 1009.3
20260901194503 63 247 6.0 12.0 0.00 0.00 0.00 89 1009.3
20260901193005 63 244 6.0 12.0 0.00 0.00 0.00 89 1009.1
20260901191503 63 238 7.0 12.0 0.00 0.00 0.00 91 1008.9
20260901184503 63 233 4.0 7.0 0.00 0.00 0.00 91 1008.6
20260901183004 63 247 3.0 6.0 0.00 0.00 0.00 90 1008.6
20260901181504 63 261 3.0 3.0 0.00 0.00 0.00 88 1008.5
20260901180004 64 273 1.0 7.0 0.00 0.00 0.00 88 1008.5
20260901174504 64 260 2.0 9.0 0.00 0.00 0.00 87 1008.4
20260901173004 64 270 2.0 10.0 0.00 0.00 0.00 86 1008.2
20260901171504 65 247 4.0 8.0 0.00 0.00 0.00 85 1008.3
20260901163004 68 266 6.0 12.0 0.00 0.00 0.00 78 1007.4
20260901160003 69 278 7.0 15.0 0.00 0.00 0.00 74 1007.4
20260901154503 70 274 10.0 17.0 0.00 0.00 0.00 70 1007.4
20260901153003 70 274 7.0 15.0 0.00 0.00 0.00 70 1007.4
20260901151504 71 294 9.0 14.0 0.00 0.00 0.00 72 1007.3
20260901150003 69 244 3.0 9.0 0.00 0.00 0.00 77 1007.4
20260901144503 68 239 5.0 13.0 0.00 0.00 0.00 78 1007.5
20260901143004 69 238 7.0 13.0 0.00 0.00 0.00 77 1007.5
20260901141503 69 294 7.0 14.0 0.00 0.00 0.00 74 1007.5
20260901140003 72 293 6.0 13.0 0.00 0.00 0.00 71 1007.4
20260901134504 72 278 6.0 13.0 0.00 0.00 0.00 73 1007.4
20260901133004 72 266 10.0 17.0 0.00 0.00 0.00 68 1007.4
20260901131504 72 255 9.0 15.0 0.00 0.00 0.00 69 1007.3
20260901130003 70 249 7.0 14.0 0.00 0.00 0.00 71 1007.3
20260901124504 69 233 5.0 12.0 0.00 0.00 0.00 74 1007.2
20260901123003 69 224 5.0 14.0 0.00 0.00 0.00 72 1007.1
20260901121504 70 280 2.0 9.0 0.00 0.00 0.00 72 1007.1